This is the latest recevied weather packets stored in our database for station/object KQ4UPF. If no packets are shown the sender has not sent any weather packets the latest 10 day(s).
| Time | Temp. | Humidity | Pressure | Rain* | Wind** | Luminosity | Snow |
|---|---|---|---|---|---|---|---|
| 1777937587 | 22.22° C | 51% | 1013.2 hPa | 0 mm | - | 53 W/m² | - |
| 1777937284 | 21.67° C | 47% | 1013.4 hPa | 0 mm | - | 57 W/m² | - |
| 1777936981 | 22.22° C | 51% | 1013.2 hPa | 0 mm | - | 61 W/m² | - |
| 1777936678 | 22.78° C | 49% | 1013.4 hPa | 0 mm | - | 63 W/m² | - |
| 1777936374 | 23.33° C | 44% | 1013.1 hPa | 0 mm | - | 63 W/m² | - |
| 1777936070 | 23.33° C | 42% | 1013.2 hPa | 0 mm | - | 65 W/m² | - |
| 1777935768 | 22.78° C | 44% | 1013.3 hPa | 0 mm | - | 63 W/m² | - |
| 1777935467 | 23.89° C | 49% | 1013.4 hPa | 0 mm | - | 70 W/m² | - |
| 1777935163 | 25° C | 40% | 1013.4 hPa | 0 mm | - | 121 W/m² | - |
| 1777934860 | 25° C | 40% | 1013.5 hPa | 0 mm | - | 186 W/m² | - |
| 1777934557 | 25° C | 45% | 1013.5 hPa | 0 mm | - | 233 W/m² | - |
| 1777934253 | 25.56° C | 39% | 1013.6 hPa | 0 mm | - | 259 W/m² | - |
| 1777933949 | 25.56° C | 42% | 1013.4 hPa | 0 mm | - | 270 W/m² | - |
| 1777933647 | 25° C | 40% | 1013.8 hPa | 0 mm | - | 308 W/m² | - |
| 1777933343 | 25.56° C | 39% | 1013.6 hPa | 0 mm | - | 328 W/m² | - |
| 1777933041 | 25.56° C | 40% | 1013.8 hPa | 0 mm | - | 341 W/m² | - |
| 1777932738 | 25.56° C | 40% | 1013.8 hPa | 0 mm | - | 162 W/m² | - |
| 1777932434 | 25.56° C | 40% | 1013.9 hPa | 0 mm | - | 376 W/m² | - |
| 1777932132 | 26.11° C | 38% | 1014 hPa | 0 mm | - | 392 W/m² | - |
| 1777931828 | 26.67° C | 33% | 1014 hPa | 0 mm | - | 412 W/m² | - |
| 1777931526 | 26.11° C | 33% | 1014.1 hPa | 0 mm | - | 431 W/m² | - |
| 1777931221 | 26.11° C | 35% | 1014 hPa | 0 mm | - | 450 W/m² | - |
| 1777930918 | 26.11° C | 31% | 1013.6 hPa | 0 mm | - | 475 W/m² | - |
| 1777930614 | 26.11° C | 35% | 1014 hPa | 0 mm | - | 494 W/m² | - |
| 1777930311 | 26.67° C | 36% | 1014.1 hPa | 0 mm | - | 508 W/m² | - |
* Rain latest hour (hover to see other rain measurements)
** Current wind speed in m/s (hover to see current wind gust speed)